TimeGMT,TemperatureF,Dew PointF,Humidity,Sea Level PressureIn,VisibilityMPH,Wind Direction,Wind SpeedMPH,Gust SpeedMPH,PrecipitationIn,Events,Conditions,WindDirDegrees,DateUTC
12:00 AM,44,39,77,29.14,16,SSE,13.4,,,Rain,Light Rain Showers,160,2012-11-04 00:00:00
12:00 AM,42.8,39.2,87,29.12,6.2,SSE,13.8,-,N/A,Rain,Light Rain Showers,160,2012-11-04 00:00:00
12:30 AM,42.8,39.2,87,29.12,6.2,SSE,15.0,-,N/A,,Mostly Cloudy,160,2012-11-04 00:30:00
1:00 AM,42.8,41.0,93,29.12,6.2,South,13.8,-,N/A,Rain,Light Rain Showers,180,2012-11-04 01:00:00
1:30 AM,42.8,41.0,93,29.09,6.2,South,15.0,-,N/A,Rain,Light Rain Showers,190,2012-11-04 01:30:00
2:00 AM,42.8,39.2,87,29.09,6.2,South,15.0,-,N/A,,Mostly Cloudy,170,2012-11-04 02:00:00
2:30 AM,41.0,39.2,93,29.09,6.2,SSE,13.8,-,N/A,,Scattered Clouds,160,2012-11-04 02:30:00
3:00 AM,41.0,39.2,93,29.06,6.2,SSE,11.5,-,N/A,,Scattered Clouds,150,2012-11-04 03:00:00
3:30 AM,42.8,39.2,87,29.06,6.2,SSE,13.8,-,N/A,,Scattered Clouds,160,2012-11-04 03:30:00
4:00 AM,42.8,39.2,87,29.06,6.2,SSE,13.8,-,N/A,Rain,Light Rain Showers,160,2012-11-04 04:00:00
4:30 AM,42.8,39.2,87,29.06,6.2,SSE,13.8,-,N/A,Rain,Light Rain Showers,160,2012-11-04 04:30:00
5:00 AM,41.0,39.2,93,29.06,6.2,SSE,13.8,-,N/A,Rain,Light Rain Showers,160,2012-11-04 05:00:00
5:30 AM,42.8,41.0,93,29.06,6.2,SSE,11.5,-,N/A,Rain,Light Rain Showers,160,2012-11-04 05:30:00
6:00 AM,42,40,88,29.06,12,SE,11.2,,,Rain,Light Rain Showers,130,2012-11-04 06:00:00
6:00 AM,41.0,39.2,93,29.06,6.2,SE,11.5,-,N/A,Rain,Light Rain Showers,130,2012-11-04 06:00:00
6:30 AM,41.0,39.2,93,29.06,6.2,SE,12.7,-,N/A,,Scattered Clouds,140,2012-11-04 06:30:00
7:00 AM,41.0,39.2,93,29.06,6.2,SE,10.4,-,N/A,,Mostly Cloudy,130,2012-11-04 07:00:00
7:30 AM,41.0,39.2,93,29.06,6.2,ESE,12.7,-,N/A,,Mostly Cloudy,120,2012-11-04 07:30:00
8:00 AM,41.0,39.2,93,29.06,6.2,ESE,10.4,-,N/A,,Mostly Cloudy,110,2012-11-04 08:00:00
8:30 AM,42.8,39.2,87,29.06,6.2,East,10.4,-,N/A,Rain,Light Rain Showers,100,2012-11-04 08:30:00
9:00 AM,42.8,41.0,93,29.09,6.2,East,10.4,-,N/A,,Mostly Cloudy,100,2012-11-04 09:00:00
9:30 AM,42.8,39.2,87,29.09,6.2,East,6.9,-,N/A,,Mostly Cloudy,80,2012-11-04 09:30:00
10:00 AM,42.8,39.2,87,29.12,6.2,NE,6.9,-,N/A,,Mostly Cloudy,50,2012-11-04 10:00:00
10:30 AM,42.8,41.0,93,29.12,6.2,NNE,6.9,-,N/A,,Mostly Cloudy,20,2012-11-04 10:30:00
11:00 AM,44.6,41.0,87,29.15,6.2,NNE,9.2,-,N/A,Rain,Light Rain Showers,30,2012-11-04 11:00:00
11:30 AM,44.6,41.0,87,29.15,6.2,North,6.9,-,N/A,,Mostly Cloudy,360,2012-11-04 11:30:00
12:00 PM,46,43,85,29.19,19,NNW,11.2,,,Rain,Light Rain Showers,330,2012-11-04 12:00:00
12:00 PM,46.4,42.8,87,29.18,6.2,NNW,10.4,-,N/A,,Mostly Cloudy,330,2012-11-04 12:00:00
12:30 PM,46.4,41.0,81,29.18,6.2,NNW,11.5,-,N/A,,Mostly Cloudy,330,2012-11-04 12:30:00
1:00 PM,46.4,41.0,81,29.21,6.2,NNW,13.8,-,N/A,,Mostly Cloudy,340,2012-11-04 13:00:00
1:30 PM,46.4,41.0,81,29.21,6.2,NNW,12.7,-,N/A,,Mostly Cloudy,340,2012-11-04 13:30:00
2:00 PM,44.6,42.8,93,29.24,6.2,NNW,10.4,-,N/A,Rain,Light Rain Showers,340,2012-11-04 14:00:00
2:30 PM,44.6,42.8,93,29.24,6.2,NNW,10.4,-,N/A,,Mostly Cloudy,340,2012-11-04 14:30:00
3:00 PM,46.4,42.8,87,29.24,6.2,NNW,13.8,-,N/A,,Mostly Cloudy,330,2012-11-04 15:00:00
3:30 PM,46.4,42.8,87,29.27,6.2,NNW,9.2,-,N/A,,Mostly Cloudy,340,2012-11-04 15:30:00
4:00 PM,46.4,41.0,81,29.27,6.2,NNW,13.8,-,N/A,,Scattered Clouds,330,2012-11-04 16:00:00
4:30 PM,46.4,41.0,81,29.30,6.2,NNW,10.4,-,N/A,,Mostly Cloudy,330,2012-11-04 16:30:00
5:00 PM,44.6,41.0,87,29.33,6.2,NNW,9.2,-,N/A,,Mostly Cloudy,330,2012-11-04 17:00:00
5:30 PM,44.6,41.0,87,29.33,6.2,NNW,11.5,-,N/A,,Mostly Cloudy,340,2012-11-04 17:30:00
6:00 PM,44,40,82,29.36,19,NNW,11.2,,,,Partly Cloudy,330,2012-11-04 18:00:00
6:00 PM,44.6,41.0,87,29.36,6.2,NNW,11.5,-,N/A,,Mostly Cloudy,330,2012-11-04 18:00:00
6:30 PM,44.6,41.0,87,29.36,6.2,NNW,11.5,-,N/A,,Mostly Cloudy,330,2012-11-04 18:30:00
7:00 PM,44.6,41.0,87,29.39,6.2,NNW,10.4,-,N/A,,Mostly Cloudy,340,2012-11-04 19:00:00
7:30 PM,44.6,41.0,87,29.39,6.2,NNW,10.4,-,N/A,,Mostly Cloudy,340,2012-11-04 19:30:00
8:00 PM,42.8,41.0,93,29.42,6.2,NNW,10.4,-,N/A,,Mostly Cloudy,340,2012-11-04 20:00:00
8:30 PM,44.6,41.0,87,29.44,6.2,North,9.2,-,N/A,,Mostly Cloudy,350,2012-11-04 20:30:00
9:00 PM,44.6,41.0,87,29.44,6.2,North,10.4,-,N/A,,Mostly Cloudy,350,2012-11-04 21:00:00
9:30 PM,42.8,41.0,93,29.47,6.2,NNW,10.4,-,N/A,Rain,Light Rain Showers,340,2012-11-04 21:30:00
10:00 PM,42.8,41.0,93,29.47,6.2,NNW,10.4,-,N/A,,Mostly Cloudy,340,2012-11-04 22:00:00
10:30 PM,42.8,41.0,93,29.50,6.2,NNW,10.4,-,N/A,,Mostly Cloudy,340,2012-11-04 22:30:00
11:00 PM,42.8,41.0,93,29.50,6.2,North,8.1,-,N/A,,Mostly Cloudy,350,2012-11-04 23:00:00
11:30 PM,41.0,39.2,93,29.53,6.2,North,9.2,-,N/A,,Scattered Clouds,350,2012-11-04 23:30:00